Regional Weather Roundup
Issued by NWS

Home | Current Version | Previous Version | Graphics & Text | Print | Product List | Glossary On
Versions: 1 2 3 4 5 6 7 8 9 10 11 12 13 14 15 16 17 18 19 20 21 22 23 24 25 26 27 28 29 30 31 32 33 34 35 36 37 38 39 40 41 42 43 44 45 46 47 48 49 50
000
ASUS43 KBIS 261601
RWRND

NORTH DAKOTA REGIONAL WEATHER ROUNDUP
NATIONAL WEATHER SERVICE BISMARCK ND
1000 AM CST MON JAN 26 2015

NOTE: "FAIR" INDICATES FEW OR NO CLOUDS BELOW 12,000 FEET WITH NO
SIGNIFICANT WEATHER AND/OR OBSTRUCTIONS TO VISIBILITY.


NDZ001>003-009>011-017-261700-
NORTHWEST NORTH DAKOTA

CITY           SKY/WX    TMP DP  RH WIND       PRES   REMARKS
WILLISTON      SUNNY     39  30  70 W5        29.96S
MINOT          MOSUNNY   39  30  70 W14       29.91R
MINOT AFB      MOSUNNY   36  35  96 W12       29.91R
$$

NDZ018>021-031>035-040>046-261700-
SOUTHWEST NORTH DAKOTA

CITY           SKY/WX    TMP DP  RH WIND       PRES   REMARKS
BISMARCK       SUNNY     41  32  70 NW9       29.93R
DICKINSON      SUNNY     38  32  79 W12       29.95R
GARRISON         N/A     39  32  76 W10       29.92R
HETTINGER ARPT SUNNY     40  33  76 W12       29.99R
$$

NDZ004>008-012>016-024-026-027-054-261700-
NORTHEAST NORTH DAKOTA

CITY           SKY/WX    TMP DP  RH WIND       PRES   REMARKS
GRAND FORKS    MOSUNNY   39  30  70 NW18G24   29.74R
GRND FRKS AFB  SUNNY     39  30  71 NW17G24   29.75R
DEVILS LAKE    SUNNY     36  28  75 NW15      29.80R
$$

NDZ022-023-025-028>030-036>039-047>053-261700-
SOUTHEAST NORTH DAKOTA

CITY           SKY/WX    TMP DP  RH WIND       PRES   REMARKS
FARGO          MOSUNNY   39  31  72 NW14      29.75R
JAMESTOWN      SUNNY     38  31  76 NW18      29.82R
$$




USA.gov is the U.S. government's official web portal to all federal, state and local government web resources and services.